Flag for Canada Weather past 2 weeks in Clarington, Ontario, Canada

Now
63 °F

Fog.


Feels Like: 63 °F
Forecast: 63 / 81 °F
Wind: N/A

Location: Peterborough Airport

Current Time: Sep 1, 2015 at 3:03:13 AM

Latest Report: Sep 1, 2015 at 2:00 AM


Visibility: 6 mi

Pressure: 30.04 "Hg

Humidity: 94%

Dew point: 61 °F

Location of ClaringtonLocation

Historic Weather in Clarington — Graph

°F

Clarington temperature yesterday

Maximum temperature yesterday: 81 °F (at 3:00 PM)
Minimum temperature yesterday: 57 °F (at 5:00 AM)
Average temperature yesterday: 68 °F

Past Weeks' High & Low Weather Summary

 TemperatureHumidityPressure
High86 °F (Aug 17, 2:00 PM)100% (Aug 17, 2:02 AM)30.23 "Hg (Aug 17, 2:02 AM)
Low43 °F (Aug 28, 4:49 AM)47% (Aug 23, 5:00 PM)29.75 "Hg (Aug 24, 6:02 AM)
Average65 °F84%30.00 "Hg
* Reported Aug 17 2:02 AM — Sep 1 2:00 AM, Clarington, Weather by CustomWeather, © 2015

Note: Actual official high and low records may vary slightly from our data, if they occured in-between our weather recording intervals... More about our weather records

Advertising

Clarington weather history for previous 24 hours

 ConditionsComfort  
Time TempWeatherWind HumidityBarometerVisibility
2:00 AM
Tue, Sep 1
63 °FFog.N/A94%30.04 "Hg6 mi
1:57 AM63 °FFog.N/A94%30.04 "Hg6 mi
1:00 AM59 °FFog.N/A100%30.04 "Hg6 mi
12:51 AM59 °FFog.N/A100%30.03 "Hg5 mi
11:00 PM
Mon, Aug 31
63 °FClear.N/A94%30.03 "Hg9 mi
10:00 PM63 °FClear.N/A100%30.03 "Hg9 mi
9:00 PM64 °FClear.N/A94%30.02 "Hg7 mi
8:00 PM73 °FSunny.N/A69%30.01 "Hg9 mi
7:00 PM77 °FSunny.N/A65%30.00 "Hg9 mi
6:00 PM79 °FSunny.N/A58%30.00 "Hg9 mi
5:00 PM81 °FSunny.N/A54%29.99 "Hg9 mi
4:00 PM81 °FSunny.N/A58%29.99 "Hg9 mi
3:00 PM81 °FScattered clouds.N/A62%30.00 "Hg9 mi
2:00 PM79 °FPassing clouds.N/A65%30.01 "Hg9 mi
1:00 PM79 °FPartly sunny.N/A65%30.01 "Hg9 mi
12:00 PM79 °FPartly sunny.N/A65%30.01 "Hg9 mi
11:01 AM75 °FPartly sunny.N/A74%30.02 "Hg9 mi
10:00 AM75 °FScattered clouds.N/A78%30.02 "Hg9 mi
9:00 AM70 °FFog.N/A94%30.01 "Hg6 mi
8:47 AM70 °FFog.N/A88%30.01 "Hg6 mi
8:00 AM63 °FFog.N/A94%30.00 "Hg4 mi
7:04 AM57 °FFog.N/A100%29.99 "Hg2 mi
7:03 AM57 °FFog.N/A100%29.99 "Hg2 mi
6:04 AM57 °FFog.N/A100%29.98 "Hg2 mi
6:02 AM57 °FFog.N/A100%29.98 "Hg2 mi
5:00 AM57 °FFog.N/A100%29.98 "Hg5 mi
4:00 AM61 °FFog.N/A94%29.98 "Hg4 mi
3:02 AM59 °FFog.N/A94%29.98 "Hg6 mi
Weather by CustomWeather, © 2015

See weather overviewHow to use our weather pages